Location: Columbia
(38.9520°N, 92.3340°W)
Time: 17:20:57
(UTC-05:00)

Cosmos 1603 - Visible Passes

Search period start: 25 April 2017 00:00
Search period end: 05 May 2017 00:00
Orbit: 830 x 861 km, 71.0° (Epoch: 24 April)

Date Brightness Start Highest point End Pass type
(mag) Time Alt. Az. Time Alt. Az. Time Alt. Az.
25 Apr 6.1 00:36:19 14° NE 00:36:19 14° NE 00:37:18 10° NE visible
25 Apr 5.1 02:18:11 32° NNW 02:18:11 32° NNW 02:21:49 10° N visible
26 Apr 6.1 00:22:28 14° NE 00:22:28 14° NE 00:23:21 10° NE visible
26 Apr 5.2 02:04:20 32° NNW 02:04:20 32° NNW 02:07:55 10° N visible
27 Apr 6.1 00:08:35 13° NE 00:08:35 13° NE 00:09:23 10° NE visible
27 Apr 5.2 01:50:27 33° NNW 01:50:27 33° NNW 01:54:02 10° N visible
27 Apr 6.1 23:54:41 13° NE 23:54:41 13° NE 23:55:25 10° NE visible
28 Apr 5.1 01:36:32 33° NNW 01:36:32 33° NNW 01:40:08 10° N visible
28 Apr 6.0 23:40:43 13° NE 23:40:43 13° NE 23:41:27 10° NE visible
29 Apr 5.1 01:22:35 34° NNW 01:22:35 34° NNW 01:26:14 10° N visible
29 Apr 6.0 23:26:43 13° NE 23:26:43 13° NE 23:27:28 10° NE visible
30 Apr 5.0 01:08:34 36° NNW 01:08:34 36° NNW 01:12:21 10° N visible
30 Apr 5.9 23:12:40 13° ENE 23:12:40 13° ENE 23:13:30 10° NE visible
01 May 5.0 00:54:32 38° NNW 00:54:32 38° NNW 00:58:27 10° NNE visible
01 May 5.8 22:58:35 14° ENE 22:58:35 14° ENE 22:59:32 10° NE visible
02 May 4.8 00:40:26 40° NNW 00:40:26 40° NNW 00:44:33 10° NNE visible
02 May 5.7 22:44:25 14° ENE 22:44:25 14° ENE 22:45:33 10° NE visible
03 May 4.7 00:26:16 44° NNW 00:26:16 44° NNW 00:30:39 10° NNE visible
03 May 5.6 22:30:10 15° ENE 22:30:10 15° ENE 22:31:34 10° NE visible
04 May 4.5 00:12:00 48° NNW 00:12:00 48° NNW 00:16:45 10° NNE visible
04 May 5.5 22:15:50 16° ENE 22:15:50 16° ENE 22:17:34 10° NE visible
